Location: Newark
(44.1667°N, 8.2500°E)
Time: 19:08:32
(UTC+00:00)

Vanguard 2 - Pass Details

Date: 09 December 2019
Orbit: 553 x 2938 km, 32.9° (Epoch: 28 January)

Event Time Altitude Azimuth Distance (km) Brightness Sun altitude
Exits shadow 23:50:30 15° 97° (E) 5,337 11.7 -67.8°
Drops below altitude 10° 23:53:02 10° 92° (E) 5,760 12.0 -67.6°
Sets 23:58:13 0° 83° (E) 6,693 12.5 -67.3°
